Hourly Data Report for November 20, 2020

OTTAWA INTL A
ONTARIO
Current Station Operator: NAVCAN

45°19'00.000" N
75°40'00.000" W
114.90 m
6106001
71628
YOW

Download Data

Hourly Data (November 2020)
Hourly Data Report for November 20, 2020
TIME Temp Definition
°C
Dew Point Definition
°C
Rel Hum Definition
%
Wind Dir Definition
10's deg

Wind Spd Definition
km/h
Visibility Definition
km
Stn Press Definition
kPa
Hmdx Definition


Wind Chill Definition


Weather Definition


00:00 7.2 0.7 63 19 5 24.1 100.20     LegendNANA
01:00 7.7 1.2 64 24 5 24.1 100.20     Mostly Cloudy
02:00 8.2 1.5 63 22 9 24.1 100.21     LegendNANA
03:00 8.9 2.1 62 21 10 24.1 100.24     LegendNANA
04:00 7.9 2.1 67 18 7 24.1 100.24     Mostly Cloudy
05:00 8.3 2.3 66 20 10 24.1 100.26     LegendNANA
06:00 8.3 2.4 66 21 7 24.1 100.26     LegendNANA
07:00 8.0 2.7 69 21 6 24.1 100.30     Rain
08:00 8.0 2.9 70 19 9 24.1 100.33     LegendNANA
09:00 9.8 3.5 65 19 16 24.1 100.32     Rain
10:00 11.7 3.9 59 19 25 24.1 100.16     Rain
11:00 12.8 3.5 53 21 17 24.1 100.27     LegendNANA
12:00 13.0 3.3 51 20 17 24.1 100.17     LegendNANA
13:00 13.5 3.0 49 20 21 24.1 100.06     Mostly Cloudy
14:00 15.1 2.7 43 20 35 24.1 99.98     LegendNANA
15:00 14.4 2.8 45 21 22 24.1 100.09     LegendNANA
16:00 13.6 3.1 49 22 22 24.1 100.16     Mostly Cloudy
17:00 12.9 3.3 52 21 17 24.1 100.23     LegendNANA
18:00 11.2 3.4 58 19 12 24.1 100.26     LegendNANA
19:00 11.3 3.9 60 21 22 24.1 100.29     Clear
20:00 10.5 4.0 64 22 22 24.1 100.36     LegendNANA
21:00 9.5 4.0 68 24 21 24.1 100.46     LegendNANA
22:00 7.9 3.4 73 25 17 24.1 100.57     Mainly Clear
23:00 7.6 2.7 71 25 19 24.1 100.60     LegendNANA

Notes on Data Quality.

Legend

  • E = Estimated
  • M = Missing
  • NA = Not Available*
  • [empty] = Indicates an unobserved value
Date modified: